[[{"header":{"parameterUnit":"m.s-1","parameterCategory":2,"la1":30.2991,"la2":30.254,"lo1":-89.0895,"lo2":-89.0444,"dy":0.0017,"dx":0.0017,"nx":28,"ny":28,"refTime":"2025-07-19T21:00:00:Z","depth":"0","parameterNumber":2,"parameterNumberName":"U-component_of_CURRENTS"},"data":[0,0,0,0,0,0,0,0,0,0,0,0,0,0,0,0,0,0,0,0,0,0,0,0,0,0,0,0,0,0,0,0,0,0,0,0,0,0,0,0,0,0,0,0,0,0,0,0,0,0,0,0,0,0,0,0,0,0,0.3313,0.3312,0,0.3212,0.321,0.3209,0.3092,0.3091,0.3089,0.3087,0.3028,0.3028,0.3028,0,0,0,0,0,0,0,0,0,0,0,0,0,0.3423,0.3421,0.3313,0.3312,0.3311,0.3212,0.321,0.3209,0.3093,0.3091,0.3088,0.3086,0.3028,0.3028,0.3028,0,0,0,0,0,0,0,0,0,0,0,0,0,0.3354,0.3421,0.3314,0.3241,0.3233,0.3212,0.321,0.3209,0.3093,0.309,0.3088,0.3085,0.3028,0.3028,0.3028,0.3081,0,0,0.3028,0.3028,0,0,0,0,0,0,0,0,0.3358,0.335,0.3253,0.3246,0.3237,0.3162,0.3227,0.3168,0.3094,0.3147,0.3087,0.3084,0.3078,0.3074,0.306,0.3079,0.3076,0.3028,0.3028,0.3028,0.3028,0,0,0,0,0,0,0,0.3363,0.3354,0.3273,0.3252,0.3242,0.3219,0.3206,0.3215,0.313,0.3142,0.3133,0.3122,0.3074,0.3061,0.3058,0.3075,0.3028,0.3028,0.3028,0.3028,0.3108,0.311,0,0,0,0,0,0,0.3377,0.3358,0.3276,0.327,0.3292,0.3219,0.3204,0.3189,0.3128,0.3116,0.3125,0.3117,0.3062,0.3058,0.3056,0.3152,0.3028,0.3028,0.3028,0.3106,0.3108,0.311,0,0,0,0,0,0,0.338,0.3371,0.3281,0.3312,0.3299,0.3219,0.3203,0.3188,0.3171,0.3115,0.3102,0.3122,0.306,0.3056,0.3066,0.3147,0.3028,0.3028,0.3103,0.3106,0.3109,0.3321,0,0,0,0,0,0,0.3383,0.3372,0.3384,0.3313,0.3297,0.3313,0.3205,0.3188,0.3169,0.3158,0.311,0.3101,0.3057,0.3066,0.3066,0.3145,0.3028,0.3101,0.3105,0.3108,0.3311,0.3331,0.3347,0,0,0,0,0,0.3388,0.3421,0.3385,0.3376,0.3309,0.3317,0.331,0.3242,0.3172,0.3208,0.3141,0.3102,0.309,0.3068,0.3067,0.3148,0.3099,0.3104,0.3108,0.3303,0.3327,0.3347,0,0,0,0,0,0,0.3468,0.341,0.3369,0.3379,0.3367,0.3298,0.3323,0.3259,0.3233,0.3217,0.3133,0.3123,0.3175,0.312,0.3097,0.3176,0.3088,0.3093,0.3236,0.3258,0.3276,0.3362,0.3029,0,0,0,0,0,0.3494,0.3505,0.345,0.3465,0.3467,0.3394,0.3387,0.3345,0.3301,0.3284,0.3235,0.3191,0.3198,0.319,0.3191,0.3231,0.3247,0.3277,0.3295,0.3311,0.3377,0.3454,0.3488,0.3126,0.3126,0.3125,0,0,0.3523,0.3499,0.3499,0.3485,0.3464,0.3484,0.3385,0.3401,0.342,0.329,0.3307,0.3273,0.3225,0.3278,0.3293,0.3236,0.342,0.3317,0.3332,0.339,0.3463,0.3499,0.3531,0.3129,0.3128,0.3128,0,0,0.3592,0.3578,0.3606,0.3609,0.36,0.3578,0.3587,0.3535,0.3529,0.3532,0.346,0.348,0.3432,0.3451,0.3441,0.3562,0.3529,0.3533,0.3686,0.376,0.3792,0.3821,0.3889,0.3922,0.3523,0.3523,0.3524,0,0.3623,0.3636,0.3625,0.3653,0.3656,0.3622,0.365,0.3669,0.3622,0.3627,0.3565,0.3555,0.3534,0.362,0.3668,0.3618,0.3636,0.361,0.3791,0.3819,0.3845,0.3908,0.3942,0.3534,0.3533,0.3532,0.3531,0,0.3698,0.3712,0.3746,0.3761,0.3786,0.3822,0.383,0.386,0.3821,0.3803,0.3869,0.3847,0.3827,0.3839,0.3798,0.3967,0.3915,0.3825,0.3751,0.3896,0.395,0.3982,0.3549,0.3546,0.3542,0.354,0,0,0.3733,0.378,0.3786,0.3788,0.3837,0.3849,0.3943,0.3989,0.4013,0.4034,0.4068,0.4148,0.412,0.4115,0.4083,0.4177,0.4389,0.4097,0.4095,0.4196,0.456,0.4473,0.4498,0.432,0.4326,0.4331,0.4527,0,0.378,0.3838,0.3857,0.3911,0.3937,0.3955,0.4024,0.4074,0.4101,0.4145,0.4205,0.4231,0.4229,0.4214,0.4334,0.4357,0.4481,0.4346,0.438,0.4383,0.4313,0.4536,0.4373,0.453,0.4557,0.4562,0.4566,0,0.3825,0.3859,0.3913,0.3943,0.3955,0.3989,0.4061,0.4118,0.4224,0.4236,0.4325,0.4337,0.4515,0.4451,0.4681,0.4583,0.4634,0.4664,0.4668,0.4551,0.4357,0.4386,0.4585,0.4447,0.4614,0.461,0.4607,0,0.3823,0.3881,0.3918,0.3932,0.3987,0.4008,0.4041,0.4133,0.418,0.4302,0.4321,0.4504,0.4551,0.4703,0.48,0.4742,0.5023,0.4908,0.4902,0.4893,0.4752,0.4719,0.4855,0.5121,0.5121,0.512,0.512,0,0.3844,0.3862,0.3908,0.3919,0.3951,0.3991,0.4043,0.4093,0.4189,0.4243,0.4363,0.4439,0.462,0.4768,0.4872,0.5011,0.508,0.5028,0.4976,0.4814,0.4787,0.4647,0.4538,0.5127,0.5126,0.5124,0.5123,0,0.3817,0.3855,0.3881,0.3932,0.3943,0.3958,0.4013,0.4047,0.414,0.422,0.4258,0.443,0.4617,0.4796,0.5016,0.5056,0.5065,0.5222,0.5028,0.4952,0.4779,0.4684,0.4651,0.4524,0.5271,0.5271,0.5271,0,0.3802,0.382,0.3867,0.3869,0.3881,0.3915,0.3929,0.4013,0.4052,0.4203,0.4231,0.4432,0.4549,0.4859,0.5003,0.5203,0.5043,0.5127,0.5012,0.4845,0.4702,0.4511,0.4392,0.4907,0.4904,0.4901,0.4899,0,0.3768,0.3786,0.3805,0.3816,0.382,0.383,0.3858,0.3881,0.3977,0.4049,0.4144,0.4253,0.4537,0.4673,0.4922,0.5016,0.4862,0.5073,0.4963,0.4532,0.4275,0.4096,0.4693,0.4875,0.4878,0.4879,0.4881,0.4882,0.3725,0.3725,0.3743,0.3739,0.3744,0.3713,0.3685,0.3732,0.3769,0.3832,0.4004,0.4122,0.436,0.4686,0.4755,0.4739,0.4696,0.4637,0.4574,0.4427,0.42,0.476,0.4819,0.4821,0.4823,0.4825,0.4826,0,0.3648,0.3653,0.3655,0.3632,0.3587,0.3616,0.3606,0.3562,0.3555,0.3682,0.3768,0.3967,0.4119,0.4303,0.4391,0.4269,0.4123,0.416,0.3872,0.3808,0.4386,0.4264,0.4128,0.4128,0.4129,0.4129,0.4129,0.4129,0.3606,0.3573,0.3572,0.3473,0.3446,0.334,0.3303,0.3266,0.3324,0.3344,0.3434,0.3577,0.3825,0.4009,0.3943,0.3863,0.3562,0.3432,0.3411,0.382,0.3859,0.3896,0.3762,0.3523,0.3522,0.2721,0.2715,0.271]},{"header":{"parameterUnit":"m.s-1","parameterCategory":2,"la1":30.2991,"la2":30.254,"lo1":-89.0895,"lo2":-89.0444,"dy":0.0017,"dx":0.0017,"nx":28,"ny":28,"refTime":"2025-07-19T21:00:00:Z","depth":"0","parameterNumber":3,"parameterNumberName":"V-component_of_CURRENTS"},"data":[0,0,0,0,0,0,0,0,0,0,0,0,0,0,0,0,0,0,0,0,0,0,0,0,0,0,0,0,0,0,0,0,0,0,0,0,0,0,0,0,0,0,0,0,0,0,0,0,0,0,0,0,0,0,0,0,0,0,0.0328,0.0327,0,0.0214,0.0213,0.0211,0.0134,0.0133,0.0133,0.0132,0.0048,0.0046,0.0045,0,0,0,0,0,0,0,0,0,0,0,0,0,0.0524,0.052,0.0328,0.0327,0.0325,0.0214,0.0213,0.0211,0.0134,0.0133,0.0132,0.0132,0.0049,0.0047,0.0044,0,0,0,0,0,0,0,0,0,0,0,0,0,0.0426,0.0519,0.0328,0.0274,0.0268,0.0215,0.0213,0.0211,0.0134,0.0133,0.0132,0.0132,0.0049,0.0047,0.0044,0.0041,0,0,0.0036,0.0035,0,0,0,0,0,0,0,0,0.0432,0.0419,0.0283,0.0278,0.0271,0.0188,0.0251,0.0156,0.0134,0.0184,0.0132,0.0131,0.0099,0.0092,0.007,0.0037,0.0034,0.0036,0.0034,0.0033,0.0032,0,0,0,0,0,0,0,0.0439,0.0424,0.0282,0.0282,0.0275,0.0272,0.0256,0.0233,0.0146,0.0179,0.0174,0.0163,0.0096,0.0073,0.0068,0.0032,0.0036,0.0033,0.0032,0.003,0.0011,0.0012,0,0,0,0,0,0,0.0453,0.0429,0.0285,0.0278,0.0353,0.0269,0.0251,0.0215,0.0146,0.0134,0.0164,0.016,0.0078,0.0071,0.0065,0.012,0.0033,0.003,0.0029,0.001,0.0011,0.0012,0,0,0,0,0,0,0.0457,0.044,0.029,0.0355,0.0335,0.0266,0.0225,0.0213,0.0199,0.0134,0.0123,0.0164,0.0077,0.0068,0.005,0.0114,0.0029,0.0027,0.0009,0.001,0.0012,0.0192,0,0,0,0,0,0,0.0463,0.0441,0.044,0.0354,0.0332,0.0287,0.0226,0.0211,0.0193,0.0187,0.013,0.0121,0.0076,0.0054,0.0047,0.0109,0.0024,0.0007,0.0009,0.0011,0.0184,0.0199,0.0212,0,0,0,0,0,0.047,0.0484,0.044,0.0424,0.0324,0.0289,0.0279,0.0226,0.0194,0.0207,0.0153,0.0123,0.0063,0.0053,0.0044,0.0107,0.0006,0.0009,0.0011,0.0178,0.0196,0.0212,0,0,0,0,0,0,0.0577,0.0475,0.0425,0.0407,0.0359,0.0277,0.0292,0.0241,0.0206,0.0201,0.0131,0.0119,0.0132,0.0082,0.0073,0.0102,0.0033,0.0033,0.0162,0.0179,0.0193,0.026,0.0022,0,0,0,0,0,0.0595,0.0574,0.0478,0.047,0.045,0.0369,0.0353,0.0308,0.0256,0.024,0.0192,0.0148,0.0134,0.0126,0.0096,0.011,0.009,0.0142,0.0156,0.0169,0.0215,0.0237,0.0259,0.0021,0.0021,0.0021,0,0,0.0634,0.0579,0.0566,0.0492,0.045,0.0441,0.0359,0.0343,0.0347,0.0239,0.0244,0.0197,0.0145,0.0163,0.0166,0.0133,0.0218,0.0172,0.0184,0.0224,0.0243,0.0266,0.0288,0.0022,0.0022,0.0022,0,0,0.0709,0.0652,0.0656,0.0623,0.0564,0.0519,0.0519,0.0438,0.0421,0.0399,0.034,0.034,0.0278,0.0283,0.0272,0.0345,0.029,0.0317,0.0451,0.0472,0.0494,0.0512,0.0494,0.0509,0.0326,0.0327,0.0327,0,0.0757,0.0732,0.0663,0.0661,0.0653,0.0561,0.0575,0.0552,0.0477,0.0488,0.0425,0.04,0.0354,0.0422,0.0441,0.0389,0.0363,0.0398,0.0497,0.0515,0.0531,0.0507,0.0522,0.0336,0.0335,0.0334,0.0333,0,0.0819,0.0807,0.0821,0.0777,0.0773,0.0773,0.0721,0.0722,0.0676,0.0645,0.0681,0.0618,0.0612,0.0596,0.0539,0.064,0.0571,0.0515,0.0469,0.0567,0.0533,0.0546,0.0349,0.0345,0.0343,0.034,0,0,0.0878,0.0861,0.086,0.0867,0.0828,0.0827,0.0868,0.0875,0.0918,0.0867,0.0933,0.0915,0.0881,0.0868,0.0811,0.0832,0.0905,0.0729,0.0726,0.0738,0.0922,0.0831,0.0834,0.0859,0.0863,0.0866,0.0846,0,0.0933,0.0964,0.0943,0.0993,0.1007,0.0972,0.102,0.1029,0.1023,0.1065,0.1051,0.1075,0.0985,0.0987,0.1008,0.0935,0.0949,0.0914,0.0803,0.0801,0.0731,0.0851,0.0777,0.0751,0.0857,0.0859,0.0861,0,0.0984,0.0998,0.1049,0.1094,0.1099,0.1125,0.1195,0.1225,0.1281,0.1282,0.1328,0.1289,0.1347,0.1228,0.1216,0.119,0.1087,0.1016,0.1012,0.0887,0.0736,0.0671,0.0768,0.0532,0.0879,0.0878,0.0876,0,0.1043,0.1077,0.1125,0.1131,0.1164,0.1205,0.1235,0.1293,0.135,0.143,0.1471,0.1512,0.1524,0.1458,0.1316,0.1266,0.1271,0.1171,0.0997,0.0985,0.0886,0.0861,0.0774,0.1169,0.1169,0.1169,0.1169,0,0.1096,0.1134,0.1155,0.1172,0.1259,0.1269,0.1376,0.1413,0.1501,0.1595,0.1588,0.1664,0.158,0.1553,0.1408,0.1264,0.1343,0.1069,0.1004,0.0938,0.0919,0.0675,0.0553,0.1168,0.1168,0.1169,0.1169,0,0.1137,0.1148,0.1206,0.1254,0.128,0.134,0.1442,0.1526,0.1591,0.1718,0.175,0.18,0.1771,0.1657,0.1545,0.137,0.1094,0.1149,0.1062,0.0989,0.0582,0.0472,0.0355,0.0256,0.0968,0.0966,0.0965,0,0.1155,0.1184,0.1253,0.1301,0.1318,0.1409,0.1482,0.1565,0.1659,0.1796,0.1868,0.189,0.1922,0.1741,0.1472,0.1241,0.1033,0.0962,0.0864,0.0599,0.043,0.0359,0.028,0.0783,0.078,0.0777,0.0775,0,0.1186,0.1207,0.1253,0.1342,0.1418,0.152,0.1626,0.1712,0.1823,0.1928,0.2058,0.21,0.1932,0.1709,0.1377,0.117,0.0774,0.0899,0.0671,0.0343,0.0221,0.0079,0.0721,0.0754,0.0756,0.0758,0.0759,0.076,0.1206,0.1245,0.1302,0.1391,0.1488,0.1609,0.1695,0.1822,0.197,0.2143,0.2187,0.2293,0.1918,0.148,0.1166,0.053,0.0593,0.0306,0.0213,0.018,0.0046,0.0628,0.0554,0.0555,0.0556,0.0556,0.0557,0,0.1217,0.1266,0.1349,0.1456,0.1562,0.1609,0.1777,0.1877,0.204,0.2241,0.2365,0.2257,0.174,0.1229,0.0395,-0.0064,-0.0207,-0.0309,-0.0427,-0.046,0.0089,0.0038,-0.0206,-0.0206,-0.0206,-0.0206,-0.0205,-0.0205,0.1227,0.129,0.1332,0.1486,0.1571,0.1712,0.1804,0.1963,0.2132,0.235,0.2456,0.2524,0.2061,0.0576,-0.045,-0.0662,-0.0952,-0.1031,-0.1122,-0.0787,-0.0737,-0.0689,-0.0765,-0.1174,-0.1175,-0.1645,-0.1651,-0.1654]}],[{"header":{"parameterUnit":"m.s-1","parameterCategory":2,"la1":30.2991,"la2":30.254,"lo1":-89.0895,"lo2":-89.0444,"dy":0.0017,"dx":0.0017,"nx":28,"ny":28,"refTime":"2025-07-19T21:00:00:Z","depth":"2","parameterNumber":2,"parameterNumberName":"U-component_of_CURRENTS"},"data":[0,0,0,0,0,0,0,0,0,0,0,0,0,0,0,0,0,0,0,0,0,0,0,0,0,0,0,0,0,0,0,0,0,0,0,0,0,0,0,0,0,0,0,0,0,0,0,0,0,0,0,0,0,0,0,0,0,0,0.2298,0.2298,0,0.231,0.231,0.231,0.2313,0.2313,0.2313,0.2313,0.2335,0.2335,0.2336,0,0,0,0,0,0,0,0,0,0,0,0,0,0.2086,0.2091,0.2298,0.2298,0.2298,0.231,0.231,0.231,0.2313,0.2313,0.2313,0.2313,0.2334,0.2335,0.2336,0,0,0,0,0,0,0,0,0,0,0,0,0,0.2145,0.2093,0.2298,0.2302,0.2303,0.231,0.231,0.231,0.2313,0.2313,0.2313,0.2313,0.2334,0.2335,0.2336,0.2339,0,0,0.2338,0.2338,0,0,0,0,0,0,0,0,0.2142,0.2153,0.2301,0.2302,0.2303,0.2311,0.2243,0.232,0.2313,0.2308,0.2313,0.2313,0.2329,0.233,0.233,0.234,0.2341,0.2338,0.2339,0.2339,0.2339,0,0,0,0,0,0,0,0.2139,0.2151,0.2301,0.2302,0.2303,0.2238,0.2249,0.2257,0.2317,0.2308,0.2309,0.2312,0.2329,0.2329,0.233,0.2341,0.2338,0.2339,0.2339,0.234,0.2418,0.242,0,0,0,0,0,0,0.2151,0.2149,0.2301,0.2302,0.2223,0.2243,0.2254,0.2307,0.2316,0.2318,0.2312,0.2313,0.2328,0.2329,0.2331,0.2419,0.2339,0.234,0.234,0.2416,0.2418,0.242,0,0,0,0,0,0,0.2147,0.2167,0.23,0.2223,0.2236,0.2248,0.2307,0.2308,0.2326,0.232,0.2321,0.2332,0.2328,0.233,0.2345,0.2417,0.234,0.2341,0.2414,0.2417,0.2419,0.2541,0,0,0,0,0,0,0.2142,0.2166,0.2209,0.2226,0.2241,0.2336,0.2307,0.2308,0.2327,0.2328,0.2337,0.2338,0.2328,0.2344,0.2345,0.2416,0.2341,0.2412,0.2416,0.2418,0.2535,0.2547,0.2558,0,0,0,0,0,0.2135,0.2148,0.2212,0.2229,0.2302,0.2338,0.234,0.2344,0.2329,0.2356,0.234,0.2338,0.2365,0.2345,0.2347,0.242,0.2411,0.2415,0.2418,0.253,0.2545,0.2558,0,0,0,0,0,0,0.2107,0.2152,0.222,0.2265,0.2332,0.234,0.2328,0.2356,0.2365,0.2368,0.2345,0.2346,0.2396,0.2376,0.2354,0.2449,0.2394,0.2398,0.2478,0.2492,0.2504,0.2595,0.2342,0,0,0,0,0,0.2126,0.2169,0.2221,0.2298,0.2286,0.2325,0.2336,0.2381,0.2386,0.2391,0.2379,0.2381,0.241,0.2423,0.2435,0.2474,0.2479,0.2524,0.2536,0.2546,0.262,0.2651,0.2674,0.2432,0.2432,0.2432,0,0,0.2143,0.2189,0.2215,0.2297,0.2315,0.2346,0.233,0.2376,0.2436,0.2392,0.2412,0.2421,0.2427,0.248,0.2502,0.2475,0.2608,0.255,0.2559,0.263,0.2658,0.2682,0.2703,0.2435,0.2434,0.2434,0,0,0.2188,0.2228,0.2257,0.2301,0.2371,0.2383,0.2404,0.2428,0.2448,0.2516,0.2489,0.2548,0.2554,0.2591,0.2609,0.2692,0.2668,0.2678,0.2817,0.2844,0.2866,0.2885,0.2889,0.2908,0.2683,0.2684,0.2684,0,0.2217,0.2286,0.2281,0.2328,0.2358,0.2396,0.2445,0.2473,0.2527,0.2559,0.2547,0.2627,0.2635,0.2727,0.2775,0.2731,0.272,0.2762,0.2864,0.2883,0.29,0.29,0.2919,0.269,0.2689,0.2688,0.2688,0,0.2263,0.2342,0.2341,0.2421,0.2458,0.2506,0.2543,0.2591,0.2622,0.2676,0.2778,0.2801,0.2858,0.2874,0.2871,0.2997,0.2938,0.2873,0.2836,0.2933,0.2924,0.2942,0.2699,0.2697,0.2695,0.2693,0,0,0.2251,0.2353,0.2363,0.2421,0.251,0.2533,0.2623,0.2702,0.2752,0.2852,0.2931,0.305,0.3075,0.3102,0.309,0.316,0.3274,0.3095,0.3093,0.3116,0.3319,0.322,0.3228,0.3208,0.3212,0.3216,0.3252,0,0.2295,0.2385,0.2437,0.2539,0.2549,0.2633,0.2693,0.2802,0.2872,0.2939,0.305,0.3117,0.3143,0.3184,0.3269,0.3299,0.3332,0.3271,0.3213,0.3213,0.3126,0.3251,0.2995,0.3002,0.3269,0.3272,0.3274,0,0.2281,0.2354,0.2441,0.257,0.2573,0.2654,0.2749,0.2834,0.2968,0.3036,0.3178,0.3216,0.3403,0.335,0.3518,0.3471,0.3425,0.3428,0.3425,0.3326,0.315,0.2954,0.3023,0.3303,0.33,0.3298,0.3296,0,0.2182,0.2335,0.24,0.2445,0.2587,0.266,0.2738,0.287,0.2935,0.3101,0.3181,0.3357,0.3445,0.3517,0.36,0.3547,0.3729,0.3611,0.3461,0.3449,0.3228,0.3191,0.3656,0.3656,0.3656,0.3656,0.3656,0,0.2145,0.2203,0.2363,0.2393,0.2469,0.2604,0.2697,0.2805,0.2967,0.3053,0.3214,0.3314,0.3493,0.3609,0.3643,0.3676,0.3753,0.3555,0.3485,0.3255,0.3222,0.3479,0.3458,0.3657,0.3657,0.3657,0.3656,0,0.2026,0.2133,0.2203,0.2367,0.242,0.247,0.266,0.2728,0.2906,0.3037,0.3103,0.3321,0.3492,0.3627,0.3737,0.3698,0.3743,0.367,0.3402,0.3302,0.3415,0.3399,0.3531,0.3528,0.3526,0.3524,0.3523,0,0.1971,0.1998,0.2141,0.2184,0.227,0.2382,0.2457,0.2661,0.2749,0.3027,0.3075,0.3287,0.3412,0.3599,0.3581,0.3617,0.3667,0.3328,0.319,0.3501,0.3418,0.3406,0.3394,0.2917,0.291,0.2905,0.2901,0,0.1869,0.1918,0.1981,0.2065,0.2149,0.2237,0.238,0.2435,0.2678,0.2813,0.3017,0.3161,0.3313,0.3278,0.3313,0.3282,0.3342,0.3217,0.3641,0.2992,0.2926,0.2843,0.285,0.2855,0.286,0.2863,0.2865,0.2867,0.1785,0.1795,0.1878,0.1953,0.2039,0.2113,0.2156,0.2316,0.2444,0.2612,0.2795,0.2908,0.2973,0.2901,0.2866,0.2833,0.3009,0.2874,0.2888,0.2908,0.2835,0.277,0.2655,0.2658,0.2661,0.2663,0.2665,0,0.1691,0.1734,0.1779,0.1862,0.1904,0.2011,0.2117,0.214,0.2258,0.2379,0.2511,0.2311,0.2335,0.2442,0.2309,0.231,0.2273,0.2236,0.2168,0.2216,0.2258,0.215,0.1789,0.1786,0.1783,0.1781,0,0,0.1643,0.1652,0.1682,0.172,0.1799,0.1849,0.1896,0.1937,0.2005,0.196,0.1971,0.2123,0.2323,0.1961,0.1955,0.187,0.2019,0.1801,0.2509,0.2476,0.2514,0.2638,0.2528,0,0,0,0,0]},{"header":{"parameterUnit":"m.s-1","parameterCategory":2,"la1":30.2991,"la2":30.254,"lo1":-89.0895,"lo2":-89.0444,"dy":0.0017,"dx":0.0017,"nx":28,"ny":28,"refTime":"2025-07-19T21:00:00:Z","depth":"2","parameterNumber":3,"parameterNumberName":"V-component_of_CURRENTS"},"data":[0,0,0,0,0,0,0,0,0,0,0,0,0,0,0,0,0,0,0,0,0,0,0,0,0,0,0,0,0,0,0,0,0,0,0,0,0,0,0,0,0,0,0,0,0,0,0,0,0,0,0,0,0,0,0,0,0,0,-0.0161,-0.0161,0,-0.0183,-0.0184,-0.0184,-0.0192,-0.0192,-0.0192,-0.0192,-0.0246,-0.0248,-0.0249,0,0,0,0,0,0,0,0,0,0,0,0,0,-0.0235,-0.0233,-0.016,-0.0161,-0.0161,-0.0183,-0.0184,-0.0184,-0.0192,-0.0192,-0.0192,-0.0192,-0.0246,-0.0247,-0.0249,0,0,0,0,0,0,0,0,0,0,0,0,0,-0.0224,-0.0232,-0.016,-0.0168,-0.0169,-0.0183,-0.0184,-0.0184,-0.0192,-0.0192,-0.0192,-0.0192,-0.0245,-0.0247,-0.0249,-0.0264,0,0,-0.0256,-0.0257,0,0,0,0,0,0,0,0,-0.0224,-0.0221,-0.0167,-0.0168,-0.0169,-0.0185,-0.023,-0.0212,-0.0192,-0.0183,-0.0192,-0.0192,-0.0229,-0.0233,-0.0236,-0.0266,-0.0269,-0.0256,-0.0258,-0.0259,-0.0259,0,0,0,0,0,0,0,-0.0225,-0.0221,-0.0169,-0.0167,-0.0169,-0.0209,-0.0206,-0.0227,-0.0206,-0.0184,-0.0185,-0.0188,-0.023,-0.0234,-0.0237,-0.0269,-0.0256,-0.0258,-0.026,-0.026,-0.0302,-0.0302,0,0,0,0,0,0,-0.0217,-0.0221,-0.0168,-0.017,-0.0198,-0.0207,-0.0204,-0.018,-0.0205,-0.0209,-0.0188,-0.0188,-0.023,-0.0235,-0.0239,-0.0268,-0.0259,-0.0261,-0.0262,-0.0302,-0.0302,-0.0302,0,0,0,0,0,0,-0.0218,-0.0211,-0.0167,-0.0199,-0.0196,-0.0205,-0.0178,-0.018,-0.0182,-0.0208,-0.0212,-0.0188,-0.023,-0.0236,-0.0253,-0.027,-0.0262,-0.0264,-0.0302,-0.0302,-0.0302,-0.0319,0,0,0,0,0,0,-0.022,-0.021,-0.0196,-0.0196,-0.0194,-0.0181,-0.0178,-0.0181,-0.0185,-0.0186,-0.021,-0.0215,-0.023,-0.025,-0.0255,-0.0272,-0.0265,-0.0303,-0.0302,-0.0302,-0.0318,-0.0319,-0.0319,0,0,0,0,0,-0.0222,-0.0222,-0.0194,-0.0189,-0.017,-0.0181,-0.0184,-0.0192,-0.0185,-0.0192,-0.02,-0.0214,-0.0251,-0.0251,-0.0258,-0.0276,-0.0303,-0.0302,-0.0302,-0.0318,-0.0319,-0.0319,0,0,0,0,0,0,-0.0265,-0.0222,-0.0193,-0.0181,-0.0175,-0.0183,-0.0201,-0.0189,-0.02,-0.0199,-0.0215,-0.0221,-0.024,-0.025,-0.0249,-0.0283,-0.0278,-0.0279,-0.0288,-0.0289,-0.029,-0.0288,-0.0267,0,0,0,0,0,-0.0258,-0.0244,-0.0208,-0.0208,-0.0197,-0.019,-0.0196,-0.0189,-0.0197,-0.0201,-0.0218,-0.023,-0.0243,-0.0259,-0.0271,-0.0296,-0.0301,-0.0308,-0.0309,-0.0309,-0.031,-0.0298,-0.0298,-0.03,-0.03,-0.03,0,0,-0.0278,-0.0258,-0.0249,-0.0217,-0.0214,-0.0212,-0.0195,-0.0202,-0.0208,-0.0207,-0.0233,-0.0233,-0.0246,-0.027,-0.028,-0.0283,-0.0319,-0.0309,-0.0309,-0.031,-0.0298,-0.0297,-0.0297,-0.03,-0.03,-0.03,0,0,-0.0318,-0.0285,-0.0272,-0.0265,-0.0246,-0.0243,-0.0239,-0.0228,-0.0228,-0.0237,-0.0236,-0.0248,-0.0271,-0.0289,-0.0299,-0.031,-0.0316,-0.0305,-0.0319,-0.0307,-0.0307,-0.0307,-0.0352,-0.0355,-0.0313,-0.0313,-0.0313,0,-0.0336,-0.0301,-0.0281,-0.0273,-0.0268,-0.0254,-0.0241,-0.0253,-0.0255,-0.0251,-0.0249,-0.0268,-0.0287,-0.031,-0.0311,-0.0317,-0.0313,-0.032,-0.0309,-0.0309,-0.0308,-0.0353,-0.0357,-0.0313,-0.0313,-0.0313,-0.0313,0,-0.035,-0.0326,-0.0334,-0.0302,-0.0306,-0.0302,-0.0293,-0.03,-0.0293,-0.029,-0.0296,-0.0311,-0.0316,-0.0328,-0.0326,-0.0332,-0.0334,-0.0306,-0.031,-0.0309,-0.0357,-0.0361,-0.0314,-0.0314,-0.0314,-0.0314,0,0,-0.0355,-0.0332,-0.0331,-0.0302,-0.0304,-0.0299,-0.0329,-0.0319,-0.0309,-0.0332,-0.0322,-0.0358,-0.0341,-0.0349,-0.0348,-0.035,-0.0365,-0.0321,-0.032,-0.0371,-0.0365,-0.0383,-0.0389,-0.0313,-0.0313,-0.0312,-0.0414,0,-0.035,-0.0325,-0.0325,-0.0315,-0.0287,-0.0296,-0.0312,-0.0318,-0.0321,-0.032,-0.0343,-0.0332,-0.0357,-0.0333,-0.0348,-0.032,-0.0367,-0.0343,-0.0352,-0.0354,-0.0374,-0.0391,-0.0347,-0.0433,-0.0418,-0.0418,-0.0419,0,-0.0328,-0.0313,-0.0285,-0.0261,-0.0249,-0.0257,-0.0249,-0.0256,-0.0278,-0.0272,-0.0292,-0.0292,-0.031,-0.0316,-0.0342,-0.0309,-0.0354,-0.0365,-0.0368,-0.0378,-0.0377,-0.0422,-0.044,-0.0425,-0.0424,-0.0424,-0.0423,0,-0.0292,-0.0274,-0.0244,-0.0241,-0.0229,-0.0223,-0.0221,-0.0237,-0.0205,-0.0231,-0.02,-0.0245,-0.0219,-0.0268,-0.0309,-0.0303,-0.0338,-0.0336,-0.0434,-0.0438,-0.0402,-0.0403,-0.0403,-0.0403,-0.0403,-0.0402,-0.0402,0,-0.0253,-0.0228,-0.0221,-0.02,-0.0162,-0.0173,-0.0133,-0.0144,-0.0125,-0.0066,-0.0152,-0.011,-0.0187,-0.0218,-0.0294,-0.0366,-0.0337,-0.0449,-0.0455,-0.0412,-0.0412,-0.039,-0.0387,-0.0406,-0.0405,-0.0405,-0.0404,0,-0.02,-0.0198,-0.0158,-0.0143,-0.0136,-0.0105,-0.0057,-0.0012,-0.0016,0.0058,0.0066,0.0023,-0.0016,-0.0142,-0.0217,-0.0322,-0.0406,-0.0464,-0.0442,-0.0443,-0.0536,-0.0533,-0.0584,-0.0585,-0.0586,-0.0587,-0.0588,0,-0.016,-0.0136,-0.0111,-0.0074,-0.0061,-0.0019,0.0028,0.004,0.0108,0.0159,0.022,0.017,0.0187,0.0007,-0.0201,-0.0392,-0.0428,-0.0515,-0.0512,-0.0549,-0.055,-0.0545,-0.0541,-0.0497,-0.0497,-0.0497,-0.0497,0,-0.0085,-0.0084,-0.0051,0.0019,0.007,0.0138,0.0212,0.0288,0.0338,0.0419,0.0537,0.0554,0.0328,0.0163,-0.0167,-0.0304,-0.0474,-0.0522,-0.0533,-0.045,-0.0472,-0.0471,-0.0469,-0.0497,-0.0497,-0.0497,-0.0497,-0.0497,-0.0028,0.0011,0.0058,0.0132,0.0201,0.0325,0.0417,0.0536,0.0688,0.0847,0.0802,0.0836,0.0513,0.0144,-0.0132,-0.0458,-0.0468,-0.0566,-0.0563,-0.0562,-0.0525,-0.0546,-0.0583,-0.0583,-0.0584,-0.0584,-0.0584,0,0.0059,0.0103,0.0178,0.0287,0.0406,0.0403,0.0569,0.0705,0.0939,0.1037,0.1151,0.0882,0.0641,0.027,-0.0193,-0.0476,-0.0489,-0.0567,-0.0514,-0.0514,-0.0513,-0.0472,-0.0517,-0.0518,-0.0518,-0.0518,0,0,0.011,0.0205,0.0248,0.0461,0.0541,0.0713,0.082,0.1032,0.1156,0.1292,0.1286,0.1216,0.0749,0.0426,0.002,-0.0229,-0.0294,-0.0281,-0.0308,-0.0196,-0.0191,-0.0495,-0.0429,0,0,0,0,0]}],[{"header":{"parameterUnit":"m.s-1","parameterCategory":2,"la1":30.2991,"la2":30.254,"lo1":-89.0895,"lo2":-89.0444,"dy":0.0017,"dx":0.0017,"nx":28,"ny":28,"refTime":"2025-07-19T21:00:00:Z","depth":"4","parameterNumber":2,"parameterNumberName":"U-component_of_CURRENTS"},"data":[0,0,0,0,0,0,0,0,0,0,0,0,0,0,0,0,0,0,0,0,0,0,0,0,0,0,0,0,0,0,0,0,0,0,0,0,0,0,0,0,0,0,0,0,0,0,0,0,0,0,0,0,0,0,0,0,0,0,0.1101,0.1102,0,0.1169,0.117,0.1171,0.1234,0.1234,0.1235,0.1236,0.1302,0.1303,0.1304,0,0,0,0,0,0,0,0,0,0,0,0,0,0.0968,0.097,0.1101,0.1102,0.1103,0.1169,0.117,0.1171,0.1234,0.1235,0.1236,0.1236,0.1302,0.1303,0.1304,0,0,0,0,0,0,0,0,0,0,0,0,0,0.1029,0.0971,0.1101,0.1143,0.1147,0.1169,0.117,0.1171,0.1233,0.1235,0.1236,0.1237,0.1302,0.1303,0.1304,0.1288,0,0,0.1309,0.131,0,0,0,0,0,0,0,0,0.1026,0.1034,0.1136,0.114,0.1145,0.1195,0.1148,0.1211,0.1233,0.12,0.1236,0.1238,0.1266,0.127,0.1279,0.1291,0.1294,0.1309,0.131,0.1311,0.1311,0,0,0,0,0,0,0,0.1022,0.1031,0.1127,0.1137,0.1142,0.1139,0.1149,0.1159,0.1224,0.1203,0.1208,0.1216,0.1268,0.1278,0.1281,0.1295,0.1309,0.131,0.1311,0.1312,0.1383,0.1384,0,0,0,0,0,0,0.1017,0.1028,0.1125,0.113,0.1088,0.114,0.1152,0.1177,0.1224,0.1233,0.1215,0.1219,0.1274,0.1279,0.1284,0.1343,0.1311,0.1312,0.1313,0.1382,0.1383,0.1384,0,0,0,0,0,0,0.1014,0.1026,0.1123,0.1079,0.1092,0.1142,0.1169,0.1178,0.1218,0.1234,0.1243,0.1249,0.1276,0.1282,0.1323,0.1343,0.1313,0.1314,0.1381,0.1382,0.1384,0.1412,0,0,0,0,0,0,0.101,0.1024,0.1039,0.108,0.1094,0.1145,0.1168,0.1178,0.1219,0.1226,0.1265,0.1271,0.1277,0.1321,0.1325,0.1344,0.1315,0.1379,0.1381,0.1383,0.141,0.1414,0.1418,0,0,0,0,0,0.1005,0.1005,0.104,0.1051,0.1114,0.1146,0.1152,0.119,0.122,0.1233,0.1272,0.1272,0.1336,0.1323,0.1327,0.1348,0.1378,0.1381,0.1383,0.1408,0.1413,0.1418,0,0,0,0,0,0,0.0946,0.1013,0.1051,0.1072,0.1117,0.1157,0.1164,0.1204,0.1245,0.1259,0.1285,0.1293,0.1337,0.1338,0.1324,0.1374,0.1356,0.136,0.1374,0.1379,0.1383,0.1354,0.1316,0,0,0,0,0,0.0944,0.0971,0.1034,0.1053,0.1075,0.1131,0.115,0.1187,0.1226,0.1248,0.1286,0.1318,0.1343,0.1359,0.138,0.1404,0.1411,0.142,0.1424,0.1427,0.1407,0.1482,0.1491,0.1391,0.1391,0.1391,0,0,0.093,0.0966,0.0985,0.1043,0.1079,0.1108,0.1146,0.1182,0.1217,0.1246,0.1305,0.1337,0.1355,0.1389,0.1407,0.1395,0.1455,0.143,0.1433,0.141,0.1485,0.1495,0.1503,0.1393,0.1393,0.1392,0,0,0.0904,0.0948,0.0967,0.1,0.106,0.1095,0.1115,0.1184,0.1225,0.1282,0.1315,0.1352,0.1404,0.1412,0.1422,0.1456,0.1479,0.1484,0.1477,0.1551,0.156,0.1568,0.1567,0.1575,0.1482,0.1482,0.1482,0,0.0887,0.0926,0.0973,0.0993,0.1021,0.1094,0.1122,0.1164,0.1244,0.1287,0.1303,0.1395,0.1401,0.1438,0.1447,0.1461,0.1502,0.1458,0.1557,0.1565,0.1573,0.1571,0.1579,0.1483,0.1483,0.1483,0.1483,0,0.088,0.0914,0.0919,0.0983,0.1012,0.1044,0.1113,0.117,0.1237,0.1292,0.137,0.1391,0.1449,0.1456,0.1456,0.1516,0.1525,0.156,0.1544,0.1585,0.1579,0.1587,0.1486,0.1485,0.1485,0.1484,0,0,0.0839,0.0909,0.0913,0.095,0.1016,0.1045,0.1101,0.1185,0.1252,0.1318,0.1394,0.1417,0.1465,0.1475,0.1498,0.1532,0.1595,0.1571,0.1575,0.1566,0.1737,0.1656,0.1656,0.1689,0.1691,0.1693,0.1703,0,0.0832,0.0863,0.0906,0.0952,0.0977,0.1057,0.1107,0.1189,0.1273,0.1365,0.1401,0.1478,0.1466,0.1513,0.1547,0.1596,0.1624,0.1586,0.1701,0.1701,0.1623,0.1665,0.17,0.1709,0.1711,0.1712,0.1713,0,0.081,0.0839,0.088,0.096,0.0983,0.1028,0.1144,0.1211,0.1335,0.1399,0.1478,0.1539,0.1579,0.1582,0.1658,0.1658,0.1692,0.171,0.1714,0.1628,0.1635,0.1667,0.1727,0.1726,0.1725,0.1724,0.1723,0,0.0749,0.0818,0.0858,0.0882,0.0983,0.1037,0.111,0.1231,0.1309,0.1445,0.1512,0.1589,0.1641,0.1704,0.174,0.1736,0.1826,0.1828,0.1767,0.176,0.1816,0.1808,0.189,0.189,0.189,0.189,0.189,0,0.071,0.0742,0.0845,0.0867,0.0933,0.1023,0.1129,0.121,0.1347,0.1434,0.1544,0.16,0.1693,0.1761,0.1777,0.1788,0.1869,0.1752,0.177,0.1823,0.1816,0.182,0.1812,0.189,0.189,0.189,0.189,0,0.0635,0.0702,0.0755,0.087,0.0906,0.0965,0.1119,0.1192,0.1341,0.1454,0.1502,0.1635,0.1716,0.1782,0.1866,0.1825,0.1848,0.184,0.1853,0.1874,0.1706,0.1699,0.1739,0.1736,0.1734,0.1732,0.1731,0,0.0598,0.0618,0.0734,0.077,0.0831,0.0937,0.0995,0.1156,0.1225,0.1453,0.1472,0.1626,0.1698,0.1723,0.1804,0.1831,0.1827,0.1809,0.1761,0.1683,0.1697,0.1693,0.169,0.1727,0.1727,0.1726,0.1726,0,0.0526,0.0584,0.0632,0.0702,0.0768,0.0844,0.0944,0.0986,0.1182,0.1314,0.1426,0.1516,0.1602,0.1655,0.1712,0.1728,0.18,0.1786,0.1789,0.1744,0.167,0.1685,0.1684,0.1718,0.1719,0.172,0.172,0,0.0474,0.0492,0.0567,0.0625,0.07,0.075,0.0815,0.0906,0.1007,0.1244,0.1269,0.1446,0.157,0.1604,0.165,0.1671,0.1636,0.1574,0.1588,0.1597,0.1554,0.144,0.1426,0,0,0,0,0,0.0429,0.0441,0.048,0.0548,0.0621,0.0671,0.0777,0.0851,0.1017,0.1054,0.1175,0.1261,0.138,0.1457,0.145,0.1578,0.1629,0.1562,0.156,0.1677,0.1686,0.1653,0,0,0,0,0,0,0.0395,0.0426,0.045,0.048,0.0512,0.0583,0.0653,0.0758,0.0787,0.0964,0.1019,0.1171,0.1278,0.1364,0.1419,0.1445,0.1417,0.1668,0.1664,0.1672,0.168,0.1687,0.1657,0,0,0,0,0]},{"header":{"parameterUnit":"m.s-1","parameterCategory":2,"la1":30.2991,"la2":30.254,"lo1":-89.0895,"lo2":-89.0444,"dy":0.0017,"dx":0.0017,"nx":28,"ny":28,"refTime":"2025-07-19T21:00:00:Z","depth":"4","parameterNumber":3,"parameterNumberName":"V-component_of_CURRENTS"},"data":[0,0,0,0,0,0,0,0,0,0,0,0,0,0,0,0,0,0,0,0,0,0,0,0,0,0,0,0,0,0,0,0,0,0,0,0,0,0,0,0,0,0,0,0,0,0,0,0,0,0,0,0,0,0,0,0,0,0,-0.0087,-0.0087,0,-0.0091,-0.0091,-0.0091,-0.0103,-0.0104,-0.0104,-0.0104,-0.0144,-0.0145,-0.0146,0,0,0,0,0,0,0,0,0,0,0,0,0,-0.0099,-0.0099,-0.0087,-0.0087,-0.0087,-0.0091,-0.0091,-0.0091,-0.0103,-0.0104,-0.0104,-0.0104,-0.0144,-0.0145,-0.0146,0,0,0,0,0,0,0,0,0,0,0,0,0,-0.0098,-0.0099,-0.0087,-0.0093,-0.0093,-0.0091,-0.0091,-0.0091,-0.0103,-0.0104,-0.0104,-0.0104,-0.0143,-0.0145,-0.0146,-0.0148,0,0,-0.015,-0.015,0,0,0,0,0,0,0,0,-0.0098,-0.0098,-0.0092,-0.0092,-0.0093,-0.0097,-0.011,-0.0112,-0.0103,-0.01,-0.0104,-0.0104,-0.0131,-0.0133,-0.0134,-0.015,-0.0151,-0.015,-0.0151,-0.0151,-0.0152,0,0,0,0,0,0,0,-0.0098,-0.0098,-0.0089,-0.0092,-0.0092,-0.0099,-0.0099,-0.0111,-0.0115,-0.01,-0.0101,-0.0101,-0.0131,-0.0132,-0.0135,-0.0152,-0.015,-0.0151,-0.0152,-0.0152,-0.019,-0.019,0,0,0,0,0,0,-0.0096,-0.0098,-0.0089,-0.0089,-0.0096,-0.0098,-0.0099,-0.0095,-0.0114,-0.0116,-0.01,-0.0101,-0.013,-0.0133,-0.0136,-0.0161,-0.0151,-0.0153,-0.0153,-0.019,-0.019,-0.019,0,0,0,0,0,0,-0.0096,-0.0095,-0.0089,-0.0093,-0.0093,-0.0098,-0.0094,-0.0095,-0.0099,-0.0113,-0.0117,-0.0103,-0.013,-0.0134,-0.0146,-0.0162,-0.0153,-0.0154,-0.0189,-0.019,-0.019,-0.0198,0,0,0,0,0,0,-0.0096,-0.0095,-0.0092,-0.0093,-0.0093,-0.0087,-0.0094,-0.0095,-0.0098,-0.0099,-0.0117,-0.0121,-0.0131,-0.0144,-0.0148,-0.0164,-0.0155,-0.0189,-0.019,-0.019,-0.0198,-0.0199,-0.02,0,0,0,0,0,-0.0097,-0.0079,-0.0092,-0.0091,-0.0089,-0.0087,-0.0088,-0.0093,-0.0098,-0.0098,-0.011,-0.012,-0.015,-0.0145,-0.0149,-0.0166,-0.0189,-0.0189,-0.019,-0.0197,-0.0199,-0.02,0,0,0,0,0,0,-0.0067,-0.0079,-0.0093,-0.0077,-0.0087,-0.0089,-0.0084,-0.0093,-0.0101,-0.0104,-0.012,-0.0124,-0.0144,-0.0149,-0.0144,-0.0177,-0.0173,-0.0174,-0.0177,-0.0178,-0.0179,-0.0167,-0.0156,0,0,0,0,0,-0.0065,-0.006,-0.0077,-0.0061,-0.0071,-0.0082,-0.0083,-0.009,-0.0096,-0.01,-0.0115,-0.013,-0.0148,-0.0157,-0.0171,-0.0185,-0.0203,-0.0199,-0.02,-0.0201,-0.0193,-0.0259,-0.0265,-0.0192,-0.0192,-0.0192,0,0,-0.0047,-0.0051,-0.0048,-0.0056,-0.0065,-0.0062,-0.0083,-0.0083,-0.0081,-0.0104,-0.0108,-0.0135,-0.0152,-0.0171,-0.0181,-0.0178,-0.0227,-0.0202,-0.0202,-0.0194,-0.026,-0.0267,-0.0274,-0.0192,-0.0192,-0.0192,0,0,-0.0,-0.0018,-0.0005,-0.0013,-0.0029,-0.0043,-0.0045,-0.0062,-0.0076,-0.0089,-0.0108,-0.0142,-0.0159,-0.0182,-0.0194,-0.0207,-0.0231,-0.0214,-0.021,-0.0274,-0.0281,-0.0288,-0.0301,-0.0308,-0.0214,-0.0214,-0.0214,0,0.0016,0.0037,0.0002,0.0013,0.0016,-0.0034,-0.0016,-0.0039,-0.0057,-0.0069,-0.0089,-0.0139,-0.0165,-0.0189,-0.0202,-0.0211,-0.0234,-0.0206,-0.0277,-0.0284,-0.0291,-0.0303,-0.0311,-0.0214,-0.0214,-0.0214,-0.0214,0,0.007,0.0082,0.0092,0.0083,0.0077,0.0085,0.0044,0.0025,-0.0009,-0.0037,-0.008,-0.013,-0.0155,-0.0183,-0.02,-0.0254,-0.025,-0.0275,-0.0277,-0.0299,-0.031,-0.0318,-0.0215,-0.0215,-0.0215,-0.0215,0,0,0.011,0.0124,0.0127,0.0139,0.0115,0.0118,0.0104,0.0076,0.0066,0.0003,-0.0011,-0.0085,-0.0129,-0.0145,-0.0186,-0.0254,-0.0327,-0.0285,-0.0288,-0.03,-0.0439,-0.0398,-0.0403,-0.0377,-0.0379,-0.038,-0.0421,0,0.0157,0.0206,0.0195,0.0232,0.0247,0.0202,0.0197,0.0161,0.0111,0.0077,-0.0012,-0.0045,-0.0109,-0.013,-0.0212,-0.0293,-0.0353,-0.0311,-0.0412,-0.0414,-0.0379,-0.0414,-0.0386,-0.0427,-0.0429,-0.0431,-0.0432,0,0.0205,0.0234,0.0288,0.0305,0.0305,0.0315,0.0292,0.0281,0.0208,0.017,0.0101,0.0032,-0.0058,-0.012,-0.0279,-0.0251,-0.0343,-0.0418,-0.0422,-0.0386,-0.039,-0.0406,-0.0447,-0.0446,-0.0445,-0.0444,-0.0443,0,0.0253,0.0293,0.0343,0.0352,0.036,0.0369,0.036,0.0309,0.0297,0.0228,0.0208,0.0089,0.0034,-0.0112,-0.0268,-0.0282,-0.0443,-0.0475,-0.0518,-0.0513,-0.0533,-0.0526,-0.0598,-0.0598,-0.0598,-0.0598,-0.0597,0,0.0305,0.034,0.0372,0.0398,0.0441,0.0426,0.0447,0.0415,0.0377,0.0364,0.026,0.0219,0.0021,-0.0095,-0.0243,-0.0391,-0.0421,-0.0515,-0.0533,-0.0531,-0.0523,-0.0538,-0.0531,-0.0599,-0.0599,-0.0598,-0.0598,0,0.0344,0.037,0.0423,0.0455,0.0467,0.0494,0.0508,0.0509,0.0477,0.0459,0.0441,0.0309,0.0159,-0.0016,-0.0239,-0.0337,-0.0492,-0.0538,-0.048,-0.0494,-0.0521,-0.0513,-0.0584,-0.0583,-0.0582,-0.0582,-0.0581,0,0.0366,0.0405,0.0465,0.0495,0.0512,0.0552,0.0569,0.0556,0.0552,0.0507,0.049,0.0364,0.026,0.0005,-0.0192,-0.0425,-0.0475,-0.0526,-0.0573,-0.0515,-0.0526,-0.0519,-0.0513,-0.058,-0.058,-0.058,-0.0579,0,0.0399,0.0424,0.0463,0.0529,0.0565,0.0613,0.0634,0.0644,0.0623,0.0609,0.0528,0.0393,0.0238,0.0017,-0.0149,-0.0333,-0.0479,-0.052,-0.0524,-0.0568,-0.0511,-0.0521,-0.0516,-0.0577,-0.0577,-0.0578,-0.0578,0,0.0406,0.0437,0.0487,0.054,0.0595,0.0635,0.0659,0.0651,0.065,0.0599,0.0573,0.0406,0.0303,0.0066,-0.0101,-0.0257,-0.0316,-0.037,-0.0383,-0.0388,-0.0329,-0.0228,-0.0223,0,0,0,0,0,0.0409,0.0437,0.0488,0.054,0.0598,0.0632,0.0674,0.0688,0.0685,0.0637,0.0607,0.0461,0.0224,0.0108,-0.0044,-0.0107,-0.0348,-0.0288,-0.0418,-0.0563,-0.0566,-0.0529,0,0,0,0,0,0,0.0403,0.0451,0.0478,0.0528,0.0566,0.0624,0.066,0.0667,0.0633,0.0615,0.0481,0.0432,0.0186,0.0306,-0.0047,-0.0094,-0.0193,-0.0401,-0.0404,-0.0562,-0.0564,-0.0567,-0.053,0,0,0,0,0]}]]